Weather History for Winter Haven, FL

Change the Weather History Date:

Tuesday, October 2, 2012

  Actual Average Record
Temperature  
Mean Temperature 78 °F -  
Max Temperature 86 °F 88 °F 96 °F (1986)
Min Temperature 73 °F 69 °F 59 °F (2011)
Cooling Degree Days 14    
Growing Degree Days 28 (Base 50)    
Moisture  
Dew Point 73 °F    
Average Humidity 87    
Maximum Humidity 94    
Minimum Humidity 65    
Precipitation  
Precipitation 0.21 in - - ()
Sea Level Pressure  
Sea Level Pressure 29.92 in    
Wind  
Wind Speed 9 mph (South)    
Max Wind Speed 14 mph    
Max Gust Speed -    
Visibility 10 miles    
Events Rain    
Averages and records for this station are not official NWS values.
T = Trace of Precipitation, MM = Missing Value Source: NWS Daily Summary

Daily Weather History Graph

Daily Weather History Graph

Search for Another Location

Airport:

Trip Planner

Search our weather history database for the weather conditions in past years. The results will help you decide how hot, cold, wet, or windy it might be!

Date:

Astronomy

Oct. 02, 2012 Rise Set
Actual Time 7:20 AM EDT 7:11 PM EDT
Civil Twilight 6:57 AM EDT 7:34 PM EDT
Nautical Twilight 6:29 AM EDT 8:01 PM EDT
Astronomical Twilight 6:02 AM EDT 8:29 PM EDT
Moon 8:41 PM EDT (10/2) 9:30 AM EDT (10/2)
Length of Visible Light 12h 37m
Length of Day
11h 50m
Waning Gibbous, 94% of the Moon is Illuminated
Oct 2
Waning Gibbous
Oct 8
Last Quarter
Oct 15
New
Oct 21
First Quarter
Oct 29
Full

Hourly Weather History & Observations

Time (EDT) Temp. Heat Index Dew Point Humidity Pressure Visibility Wind Dir Wind Speed Gust Speed Precip Events Conditions
12:53 AM 77.0 °F - 73.9 °F 90% 29.83 in 9.0 mi South 10.4 mph - N/A   Clear
1:35 AM 75.9 °F - 73.9 °F 94% 29.84 in 10.0 mi South 9.2 mph - N/A   Partly Cloudy
2:53 AM 75.9 °F - 73.0 °F 91% 29.83 in 10.0 mi South 8.1 mph - N/A   Partly Cloudy
3:14 AM 75.9 °F - 73.0 °F 91% 29.85 in 10.0 mi SSW 10.4 mph - N/A   Mostly Cloudy
3:41 AM 75.9 °F - 73.0 °F 91% 29.84 in 10.0 mi South 9.2 mph - N/A   Mostly Cloudy
3:53 AM 75.9 °F - 73.0 °F 91% 29.84 in 10.0 mi South 10.4 mph - N/A   Overcast
4:22 AM 75.9 °F - 73.0 °F 91% 29.84 in 10.0 mi South 9.2 mph - N/A   Mostly Cloudy
4:46 AM 75.9 °F - 73.9 °F 94% 29.85 in 10.0 mi South 6.9 mph - N/A   Mostly Cloudy
4:53 AM 75.9 °F - 73.9 °F 94% 29.84 in 10.0 mi South 9.2 mph - N/A   Mostly Cloudy
5:07 AM 75.9 °F - 73.9 °F 94% 29.85 in 10.0 mi South 10.4 mph - N/A   Scattered Clouds
5:53 AM 75.9 °F - 73.0 °F 91% 29.85 in 10.0 mi SSW 8.1 mph - N/A   Clear
6:38 AM 75.9 °F - 73.0 °F 91% 29.87 in 10.0 mi South 8.1 mph - N/A   Scattered Clouds
6:51 AM 75.2 °F - 73.4 °F 94% 29.87 in 10.0 mi South 10.4 mph - N/A   Mostly Cloudy
6:53 AM 75.9 °F - 73.9 °F 94% 29.87 in 10.0 mi South 9.2 mph - N/A   Mostly Cloudy
7:00 AM 75.9 °F - 73.9 °F 94% 29.87 in 10.0 mi South 9.2 mph - N/A   Overcast
7:20 AM 77.0 °F - 73.9 °F 90% 29.88 in 10.0 mi South 10.4 mph - N/A   Overcast
7:53 AM 77.0 °F - 73.9 °F 90% 29.88 in 10.0 mi South 11.5 mph - N/A   Overcast
8:23 AM 78.1 °F - 73.9 °F 87% 29.91 in 10.0 mi SSW 10.4 mph - N/A   Mostly Cloudy
8:43 AM 79.0 °F - 73.9 °F 84% 29.92 in 10.0 mi South 8.1 mph - N/A   Mostly Cloudy
8:53 AM 79.0 °F - 73.9 °F 84% 29.92 in 10.0 mi South 11.5 mph - N/A   Mostly Cloudy
9:26 AM 80.1 °F 84.5 °F 73.9 °F 81% 29.93 in 10.0 mi South 13.8 mph - N/A   Scattered Clouds
9:53 AM 81.0 °F 86.2 °F 73.9 °F 79% 29.93 in 10.0 mi South 9.2 mph - N/A   Partly Cloudy
10:45 AM 81.0 °F 85.8 °F 73.0 °F 77% 29.95 in 10.0 mi South 12.7 mph - N/A   Scattered Clouds
10:53 AM 80.1 °F 84.2 °F 73.0 °F 79% 29.95 in 10.0 mi South 11.5 mph - N/A   Partly Cloudy
11:18 AM 81.0 °F 86.2 °F 73.9 °F 79% 29.96 in 10.0 mi South 11.5 mph - N/A   Mostly Cloudy
11:53 AM 81.0 °F 86.2 °F 73.9 °F 79% 29.96 in 10.0 mi South 10.4 mph - N/A   Mostly Cloudy
12:37 PM 82.0 °F 87.9 °F 73.9 °F 76% 29.96 in 10.0 mi SSW 8.1 mph - N/A   Scattered Clouds
12:53 PM 82.9 °F 88.8 °F 73.0 °F 72% 29.95 in 10.0 mi SW 8.1 mph - N/A   Scattered Clouds
1:53 PM 82.0 °F 87.9 °F 73.9 °F 76% 29.94 in 4.0 mi SW 11.5 mph - 0.02 in Rain Light Rain
2:53 PM 84.9 °F 90.7 °F 72.0 °F 65% 29.92 in 10.0 mi SW 8.1 mph - 0.01 in   Clear
3:53 PM 80.1 °F 83.8 °F 72.0 °F 76% 29.92 in 10.0 mi WSW 8.1 mph - 0.00 in Rain Light Rain
4:53 PM 78.1 °F - 73.9 °F 87% 29.92 in 9.0 mi South 6.9 mph - 0.02 in Rain Light Rain
5:27 PM 77.0 °F - 75.0 °F 94% 29.93 in 7.0 mi SSE 8.1 mph - 0.02 in Rain Light Rain
5:53 PM 75.9 °F - 73.0 °F 91% 29.93 in 10.0 mi SSE 4.6 mph - 0.02 in   Partly Cloudy
6:53 PM 77.0 °F - 73.9 °F 90% 29.96 in 10.0 mi SE 8.1 mph - 0.01 in Rain Light Rain
7:23 PM 75.9 °F - 73.9 °F 94% 29.98 in 10.0 mi SSE 8.1 mph - 0.01 in Rain Light Rain
8:53 PM 75.0 °F - 73.0 °F 94% 30.00 in 6.0 mi SE 9.2 mph - 0.11 in Rain Light Rain
9:09 PM 75.0 °F - 73.0 °F 94% 30.01 in 9.0 mi SSE 9.2 mph - 0.02 in Rain Light Rain
9:36 PM 73.9 °F - 72.0 °F 93% 30.03 in 10.0 mi North - - 0.02 in   Mostly Cloudy
9:53 PM 73.9 °F - 72.0 °F 93% 30.04 in 10.0 mi SE 10.4 mph - 0.02 in   Scattered Clouds
10:53 PM 73.9 °F - 72.0 °F 93% 30.05 in 10.0 mi SSE 5.8 mph - N/A   Clear
11:53 PM 73.9 °F - 72.0 °F 93% 30.05 in 10.0 mi South 4.6 mph - N/A   Clear